Terug naar catalogus

SHIJIAN 6 02B

SJ-6 02B

ActiefWetenschapSSO
NORAD 29506·PAYLOAD·🇨🇳 China

Gelanceerd Oct 23, 2006 vanaf Taiyuan Satellite Launch Center

Loading…

Volgende Passages (komende 24 uur)

TLE

VersSource: Space-Track

Epoch: Sep 14, 2026, 12:22 UTC

1 29506U 06046B   26257.51591904  .00000257  00000-0  24527-4 0  9992
2 29506  97.6982 285.9639 0016064 127.1662 233.1032 15.01477596 84145

Volg SHIJIAN 6 02B in realtime met AllMySat

Download on the App Store